Terug naar catalogus

BREEZE-M DEB

LostHEO
NORAD 32497·DEBRIS·🇷🇺 Russia

Gelanceerd Feb 28, 2006 vanaf Baikonur Cosmodrome

Loading…

Volgende Passages (komende 24 uur)

TLE

VerouderdSource: Space-Track

Epoch: Jul 23, 2026, 08:45 UTC

1 32497U 06006AL  26204.36468481  .00003785  00000-0  37126-2 0  9995
2 32497  51.7225 345.4142 4971736 147.9403 255.5615  5.49173516 42429

Volg BREEZE-M DEB in realtime met AllMySat

Download on the App Store